Regional Weather Roundup
Issued by NWS

Home | Current Version | Previous Version | Text Only | Print | Product List | Glossary On
Versions: 1 2 3 4 5 6 7 8 9 10 11 12 13 14 15 16 17 18 19 20 21 22 23 24 25 26 27 28 29 30 31 32 33 34 35 36 37 38 39 40 41 42 43 44 45 46 47 48 49 50
000
ASUS43 KDTX 311710
RWRMI
MICHIGAN HOURLY REGIONAL WEATHER ROUNDUP
NATIONAL WEATHER SERVICE DETROIT/PONTIAC MI
100 PM EDT TUE MAY 31 2016

NOTE: "FAIR" INDICATES FEW OR NO CLOUDS BELOW 12,000 FEET WITH NO
SIGNIFICANT WEATHER AND/OR OBSTRUCTION TO VISIBILITY.

MIZ047>049-052>055-059>063-066>070-074>076-081>083-311800-
SOUTHEAST LOWER MICHIGAN

CITY           SKY/WX    TMP DP  RH WIND       PRES   REMARKS
ADRIAN         PTSUNNY   83  44  25 E10       30.04F
ALMA           SUNNY     76  49  38 NE3       30.06F
ANN ARBOR      MOSUNNY   80  47  31 E9        30.04F
BAD AXE        SUNNY     65  52  62 NE12G17   30.10S
CARO           SUNNY     77  54  43 N3        30.05F
DETROIT CITY   MOSUNNY   80  47  31 E10G16    30.05S
DETROIT        PTSUNNY   82  46  28 VRB6      30.04F
FLINT          SUNNY     81  50  33 NE8       30.06S
GROSSE ILE     CLOUDY    81  45  28 NE8       30.03F
HILLSDALE      MOSUNNY   80  33  18 NE9       30.05S
HOWELL         SUNNY     80  45  28 NE7       30.05S

CITY           SKY/WX    TMP DP  RH WIND       PRES   REMARKS
JACKSON        MOSUNNY   80  48  32 E12       30.05S
LAMBERTVILLE   CLOUDY    80  53  40 E7        30.04F
LANSING        SUNNY     79  51  37 VRB6      30.06S
LAPEER         FAIR      76  49  38 E3        30.07S
MASON          SUNNY     80  48  32 E7G16     30.05F
MONROE         CLOUDY    81  52  37 E8        30.03F
MT. CLEMENS    PTSUNNY   74  52  46 E8        30.07R
PONTIAC        PTSUNNY   80  47  31 N8        30.05S
PORT HOPE        N/A     57  53  86 N13       30.12R
PORT HURON     SUNNY     66  54  63 N9        30.09S
TRI CITIES     SUNNY     78  53  41 VRB7      30.07F
MIDLAND        FAIR      75  54  49 SE7       30.06F
TROY           SUNNY     80  47  30 E12       30.07S
SAGINAW HB     SUNNY     77  52  41 N9        30.06S
$$
MIZ043>046-050>051-056>058-064>065-071>073-077>080-311800-
SOUTHWEST LOWER MICHIGAN

CITY           SKY/WX    TMP DP  RH WIND       PRES   REMARKS
BATTLE CREEK   MOSUNNY   78  46  32 SE10G16   30.05S
BENTON HARBOR  PTSUNNY   80  49  33 SE13      30.01S
BIG RAPIDS     SUNNY     76  54  45 SE8       30.05S
COLDWATER      PTSUNNY   77  47  34 E6        30.04S
FREMONT        FAIR      79  50  36 SE3       30.03F
HOLLAND        SUNNY     83  49  30 SE13G20   30.03S
GRAND RAPIDS   PTSUNNY   82  48  30 SE9       30.04F
IONIA          FAIR      78  46  31 E8        30.05S
KALAMAZOO      PTSUNNY   80  45  28 VRB6      30.04S
LUDINGTON      CLOUDY    75  56  50 E5        30.04S
MARSHALL       CLOUDY    80  44  27 E5        30.04S
MOUNT PLEASANT SUNNY     77  52  42 CALM      30.05F
MUSKEGON       PTSUNNY   82  48  30 SE12      30.02F
SOUTH HAVEN    PTSUNNY   81  45  28 E12       30.02S
$$
MIZ016>042-311800-
NORTHERN LOWER MICHIGAN

CITY           SKY/WX    TMP DP  RH WIND       PRES   REMARKS
ALPENA         SUNNY     64  47  53 VRB6      30.12S
BEAVER ISLAND  SUNNY     61  47  60 E9        30.11S
BELLAIRE       SUNNY     75  44  32 NE5       30.05F
CADILLAC       SUNNY     75  53  46 E3        30.05F
CHARLEVOIX     SUNNY     64  53  67 NW6       30.11R
FRANKFORT      CLOUDY    74  54  50 E6        30.04S
GAYLORD        SUNNY     72  46  39 VRB6      30.08F
GRAYLING       SUNNY     76  47  36 N3        30.07F
HARBOR SPRINGS SUNNY     66  47  51 E10       30.09S
HOUGHTON LAKE  SUNNY     73  54  51 SW7       30.07F
MANISTEE       CLOUDY    77  54  44 SE6       30.04R
OSCODA         SUNNY     61  47  59 NE17      30.10S
PELLSTON       SUNNY     65  46  50 E12       30.10F
ROGERS CITY    SUNNY     54  44  69 NE6       30.15S
TRAVERSE CITY  MOSUNNY   69  52  54 N8        30.04F
$$
MIZ007>008-015-311800-
EASTERN UPPER MICHIGAN

CITY           SKY/WX    TMP DP  RH WIND       PRES   REMARKS
KINROSS          N/A     64  46  52 CALM      30.11F
MACKINAC ISLAN SUNNY     58  45  62 E9        30.10F
NEWBERRY       SUNNY     64  46  51 NE3       30.09F
S. S. MARIE    SUNNY     65  46  50 VRB3      30.10F
MUNISING         N/A     52  46  80 NE10      30.10F
$$
MIZ004>006-011>014-085-311800-
CENTRAL UPPER MICHIGAN

CITY           SKY/WX    TMP DP  RH WIND       PRES   REMARKS
MANISTIQUE     SUNNY     64  47  55 SE8       30.10S
ESCANABA       SUNNY     57  45  62 S9        30.10S
MENOMINEE      CLOUDY    57  46  67 NE14      30.09F
SAWYER-GWINN   SUNNY     54  43  66 N7        30.11S
$$
MIZ001>003-009>011-084-311800-
WESTERN UPPER MICHIGAN

CITY           SKY/WX    TMP DP  RH WIND       PRES   REMARKS
IRON MOUNTAIN  CLOUDY    66  46  48 SE13      30.06F
HOUGHTON       CLOUDY    46  39  76 E16       30.10F
COPPER HARBOR    N/A     50  41  71 S8G17     30.12R
IRONWOOD       CLOUDY    63  50  63 SE13G18     N/A
$$

ABBREVIATIONS USED IN REMARKS
   TC - TEMPERATURE IN CELSIUS
  WCI - WIND CHILL INDEX
   HX - HEAT INDEX
  VSB - VISIBILITY





USA.gov is the U.S. government's official web portal to all federal, state and local government web resources and services.